Location: Mactaquac Provincial Park
(45.9573°N, 66.8897°W)
Time: 02:12:42
(UTC-03:00)

Daily predictions for brighter satellites

Satellite Brightness Start Highest point End
(mag) Time Altitude Azimuth Time Altitude Azimuth Time Altitude Azimuth
USA 215 4.0 00:09:11 10° NE 00:15:25 49° NNW 00:21:38 10° W
Lacrosse 5 4.2 00:19:56 10° NW 00:22:01 20° NNW 00:22:01 20° NNW
Cosmos 2297 Rocket 4.0 00:28:08 10° NNW 00:30:44 26° N 00:30:44 26° N
Cosmos 2227 Rocket 4.2 00:54:13 10° NNW 00:56:18 23° NNW 00:56:18 23° NNW
Cosmos 1943 Rocket 4.5 01:10:18 18° NW 01:10:19 18° NW 01:14:03 10° N
ATLAS 3B R/B 4.0 01:54:08 34° NW 01:54:23 34° NW 02:00:48 10° NNE
Cosmos 2322 Rocket 4.3 02:33:09 20° ENE 02:33:09 20° ENE 02:35:12 10° NE
SL-16 R/B 4.0 02:36:29 29° ENE 02:36:54 29° ENE 02:42:08 10° N
SL-16 R/B 4.2 02:40:31 23° ENE 02:40:31 23° ENE 02:42:57 10° NE
Cosmos 1697 Rocket 4.4 02:42:17 28° N 02:42:17 28° N 02:45:01 10° NNE
Cosmos 2360 Rocket 4.2 03:00:36 20° E 03:00:36 20° E 03:03:26 10° NE
Cosmos 1980 Rocket 3.7 03:02:11 32° N 03:02:11 32° N 03:05:18 10° NNE
Cosmos 2263 Rocket 4.0 03:03:43 10° NNW 03:05:55 24° NNW 03:05:55 24° NNW
CENTAUR R/B 3.0 03:23:02 57° N 03:23:02 57° N 03:28:53 10° NE
USA 215 4.3 03:33:38 10° E 03:39:42 42° NNE 03:45:46 10° NW
Resurs 1-4 Rocket 2.6 03:49:37 10° NNE 03:53:59 55° NE 03:53:59 55° NE
Cosmos 2315 Rocket 4.0 04:00:09 73° NNW 04:00:09 73° NNW 04:05:49 10° N
Cosmos 1709 Rocket 4.5 03:58:15 10° NNW 04:02:54 48° NW 04:02:54 48° NW
CZ-2D R/B 2.3 04:02:01 10° NNE 04:07:00 72° NE 04:07:00 72° NE
Cosmos 2322 Rocket 2.9 04:14:58 41° NW 04:14:58 41° NW 04:19:34 10° NNE
Meteor 1-18 Rocket 4.5 04:14:57 57° SE 04:15:32 61° E 04:21:05 10° NNE
Cosmos 2074 Rocket 4.0 04:13:21 10° N 04:19:38 80° E 04:21:14 53° SSE
SL-16 R/B 3.0 04:21:35 46° WNW 04:21:35 46° WNW 04:26:19 10° NNW
SL-16 R/B 3.0 04:22:22 39° NW 04:22:22 39° NW 04:27:13 10° NNE
Cosmos 2219 Rocket 3.9 04:20:36 19° SE 04:23:07 26° ESE 04:27:42 10° NE
Cosmos 1844 Rocket 3.1 04:19:44 10° NNW 04:25:18 61° ENE 04:30:47 10° SE
ADEOS 3.8 04:23:11 10° N 04:27:46 58° NW 04:27:46 58° NW
ARIANE 5 R/B 2.7 04:24:35 10° N 04:29:07 60° NW 04:29:07 60° NW
Cosmos 2237 4.3 04:31:33 59° SSE 04:32:28 69° ESE 04:38:11 10° NNE
Meteor 1-12 Rocket 4.1 04:28:39 10° N 04:34:21 88° E 04:35:53 51° SSE
COSMOS 2428 3.1 04:35:39 46° SSE 04:37:02 59° ESE 04:42:38 10° NNE
SL-08 ROCKET BODY 4.2 04:33:38 10° NNW 04:39:25 64° W 04:39:29 64° W
Cosmos 1455 Rocket 3.6 04:35:03 10° N 04:38:23 51° NNW 04:38:23 51° NNW
Okean O Rocket 3.3 04:38:42 10° NE 04:42:38 30° E 04:45:22 17° SSE
Cosmos 2360 Rocket 2.2 04:42:22 61° W 04:42:45 62° WNW 04:48:23 10° NNE
Okean 1 3.7 04:43:45 59° N 04:43:45 59° N 04:47:06 10° N
Cosmos 1570 Rocket 4.1 04:43:09 56° SSE 04:44:10 71° ESE 04:49:24 10° NNE
Cosmos 1980 Rocket 4.2 04:43:56 14° NW 04:44:53 14° NW 04:47:51 10° N
CZ-2D R/B 3.5 04:42:03 10° NNE 04:46:19 82° NNW 04:46:19 82° NNW
Cosmos 2278 Rocket 3.4 04:43:04 10° NNW 04:48:28 42° NE 04:53:49 10° SE
ATLAS 5 CENTAUR R/B 2.8 04:43:05 10° NW 04:48:55 63° NE 04:55:18 10° SE
Cosmos 1975 Rocket 4.4 04:50:58 27° NW 04:50:58 27° NW 04:53:30 10° N
Cosmos 1340 3.3 04:53:17 50° N 04:53:17 50° N 04:56:12 10° N
ADEOS Rocket 2.9 04:49:33 10° N 04:54:55 53° WNW 04:55:32 50° W
Cosmos 2237 Rocket 3.9 04:50:37 10° SSE 04:55:25 29° ESE 05:00:15 10° NE
Cosmos 1975 4.1 04:54:33 10° NNW 04:56:51 31° NNW 04:56:51 31° NNW
Cosmos 2184 Rocket 4.0 04:53:33 10° NNW 04:59:36 55° W 05:01:18 43° SW
PSLV R/B 4.4 04:56:20 10° NNE 05:00:01 51° E 05:01:04 38° SSE
IRS-1D 4.3 04:56:15 10° N 05:00:22 32° WNW 05:00:22 32° WNW
Cosmos 1812 4.3 05:02:25 25° NNW 05:02:25 25° NNW 05:04:31 10° N
SL-8 R/B 3.5 05:02:14 57° W 05:03:12 84° SSW 05:07:59 10° ESE
Cosmos 1666 3.6 05:02:00 10° N 05:05:47 49° ENE 05:09:34 10° SSE
MOS 1-B 4.3 05:02:02 10° NNE 05:07:53 86° WNW 05:10:54 30° SSW
Cosmos 1536 Rocket 3.5 05:08:44 59° SW 05:09:21 67° W 05:13:50 10° N
Meteor 2-4 Rocket 4.5 05:07:59 10° SSE 05:13:18 50° E 05:18:31 10° NNE
CENTAUR R/B 4.2 05:10:12 16° WNW 05:13:57 25° NNW 05:19:52 10° NNE
COBE Rocket 4.4 05:09:29 10° N 05:14:20 43° WNW 05:15:12 40° W
Meteor 1-19 Rocket 4.4 05:09:56 16° S 05:14:32 72° E 05:20:18 10° NNE
CZ-4C R/B 4.3 05:12:26 10° NNW 05:18:41 37° NE 05:25:39 10° ESE
CZ-2C R/B 4.1 05:14:28 10° SSE 05:18:57 63° ENE 05:23:24 10° N
Cosmos 1743 2.6 05:16:59 10° NNW 05:20:49 65° W 05:21:35 51° SSW
USA 215 3.2 05:15:47 10° SE 05:22:21 90° NE 05:28:56 10° NW
IRS-1C Rocket 4.4 05:18:20 10° NNE 05:23:36 67° ESE 05:28:48 10° S
Cosmos 2333 Rocket 2.6 05:19:44 18° S 05:24:01 64° ESE 05:29:43 10° NNE
PAYLOAD B 4.4 05:22:13 10° NNE 05:27:52 75° ESE 05:33:27 10° S
Cosmos 2154 Rocket 4.0 05:28:03 10° NNW 05:34:04 55° W 05:40:06 10° SSW
Resurs 1-4 Rocket 3.5 05:30:29 10° NNW 05:34:14 20° WNW 05:35:04 19° WNW
USA 229 DEB 3.7 05:29:44 22° SSW 05:34:29 84° SE 05:41:29 10° NE
USA 229 3.7 05:29:49 22° SSW 05:34:34 84° SE 05:41:34 10° NE
MTI 3.7 05:32:20 10° S 05:35:38 80° WSW 05:38:56 10° NNW
ERBS 3.7 05:32:32 10° NW 05:35:51 39° NNE 05:39:10 10° ESE
Cosmos 2298 Rocket 3.9 05:31:06 10° NNW 05:36:27 77° WSW 05:41:46 10° SSE
Cosmos 1606 Rocket 4.4 05:32:26 10° N 05:36:52 55° ENE 05:41:15 10° SSE
DELTA 2 R/B (1) 4.1 05:34:42 29° SW 05:37:01 44° S 05:42:15 10° ESE
UNKNOWN OBJECT B 4.5 05:38:13 10° NNW 05:40:16 17° NW 05:40:16 17° NW
Okean 1-7 Rocket 3.5 05:38:10 11° S 05:42:27 87° W 05:46:57 10° N
MOS 1 Rocket 3.6 05:38:09 10° N 05:42:33 42° WNW 05:44:28 27° WSW
Cosmos 1844 3.9 05:37:48 10° NW 05:43:18 46° WSW 05:48:40 10° S
Aureole 2 Rocket 2.7 05:41:04 18° S 05:43:26 64° ESE 05:46:39 10° NNE
Meteor 1-31 Rocket 4.3 05:40:42 10° NNE 05:44:14 35° E 05:47:46 10° SSE
Cosmos 1238 Rocket 2.6 05:45:26 37° W 05:45:35 38° WNW 05:48:30 10° N
CZ-2D R/B 3.8 05:43:27 10° NNW 05:46:55 17° WNW 05:48:19 16° WNW
ERS-2 3.5 05:44:15 10° NNE 05:47:47 41° E 05:51:17 10° S
NOSS 3-1 (C) 4.3 05:42:18 10° S 05:47:48 46° ESE 05:53:56 10° NE
SL-8 Rocket 4.0 05:41:43 10° N 05:47:58 89° E 05:54:08 10° S
Iridium 2 4.0 05:44:26 10° N 05:48:15 67° E 05:52:05 10° SSE
EO 1 Del DPAF 3.3 05:45:10 10° S 05:48:55 52° W 05:52:43 10° NNW
CZ-4B R/B 3.2 05:45:58 10° NNE 05:51:37 78° WNW 05:57:09 10° SSW
ADEOS II 2.0 05:47:54 10° N 05:53:09 71° WNW 05:58:22 10° SSW
SL-16 R/B 3.7 05:48:58 10° S 05:54:05 37° ESE 05:59:14 10° NE
CZ-4B DEB 4.2 05:51:05 10° N 05:56:39 71° WNW 06:02:09 10° SSW
Cosmos 2322 Rocket 4.4 05:58:40 10° NW 05:59:50 11° NNW 06:01:00 10° NNW
Cosmos 2181 Rocket 4.0 05:53:58 10° SSW 06:00:09 66° W 06:06:30 10° N
Cosmos 1025 Rocket 3.0 05:58:17 10° SSW 06:02:38 67° W 06:07:03 10° N
Cosmos 1980 3.7 05:57:23 10° SSW 06:03:02 81° WNW 06:08:44 10° NNE
Cosmos 990 Rocket 3.9 05:58:08 10° NNW 06:03:17 66° WSW 06:08:23 10° S
Okean 2 3.4 05:59:10 10° S 06:03:21 89° NW 06:07:33 10° N
NOSS 0 Rocket 3.9 05:59:29 10° SSW 06:05:39 76° WNW 06:11:50 10° NNE
Cosmos 2219 Rocket 2.4 06:02:20 15° SW 06:06:45 51° WNW 06:12:13 10° NNE
SL-16 R/B 4.5 06:07:31 10° NNW 06:07:42 10° NNW 06:07:52 10° NNW
Cosmos 1844 Rocket 3.7 06:04:32 10° NW 06:08:41 22° W 06:12:49 10° SSW
Cosmos 1867 4.1 06:05:31 10° NW 06:10:26 35° WSW 06:15:17 10° S
Cosmos 1726 Rocket 3.5 06:06:12 10° N 06:10:41 80° W 06:15:08 10° S
Cosmos 371 Rocket 3.7 06:07:08 10° S 06:11:57 68° ESE 06:16:49 10° NNE
CZ-4B R/B 3.7 06:10:53 10° N 06:14:01 27° WNW 06:16:28 14° WSW
COSMO-SKYMED 1 3.7 06:10:22 10° SE 06:14:33 49° ENE 06:18:45 10° N
Meteor 2-9 Rocket 4.5 06:09:48 10° NNW 06:15:09 44° W 06:20:19 10° SSW
Cosmos 468 Rocket 4.3 06:10:37 11° SW 06:15:29 49° WNW 06:20:37 10° NNE
CZ-4B R/B 4.3 06:11:38 10° NNE 06:16:11 82° E 06:20:39 10° S
Cosmos 332 Rocket 3.8 06:12:14 10° SSW 06:17:09 85° WNW 06:22:04 10° NNE
USA 116 4.2 06:13:38 10° S 06:18:05 65° W 06:23:06 10° NNW
Okean O Rocket 2.5 06:15:05 10° N 06:18:58 30° WNW 06:22:51 10° SW
Cosmos 1437 2.9 06:16:25 10° SSW 06:19:37 50° WNW 06:22:49 10° N
Cosmos 1898 Rocket 4.3 06:15:16 10° NW 06:19:40 28° W 06:24:02 10° SSW
IRAS Rocket 4.4 06:14:34 10° N 06:19:58 54° WNW 06:25:23 10° SW
Cosmos 2218 Rocket 4.0 06:14:40 10° NNW 06:20:58 64° W 06:27:11 10° S
COSMOS 2428 3.9 06:17:41 13° W 06:21:43 27° NW 06:26:30 10° N
Meteor 1-28 Rocket 4.4 06:21:48 10° SSE 06:25:28 47° ENE 06:29:10 10° N
Cosmos 1892 Rocket 3.5 06:21:23 10° SSW 06:25:44 74° W 06:30:09 10° N
Thor Agena Rocket 3.4 06:21:43 10° SSE 06:26:46 80° WSW 06:31:50 10° NNW
Cosmos 2360 Rocket 4.1 06:25:01 10° WNW 06:27:58 14° NW 06:30:56 10° N
Cosmos 1125 Rocket 3.8 06:23:07 10° NNW 06:28:26 75° ENE 06:33:43 10° SSE
Cosmos 2278 Rocket 2.8 06:27:23 10° NW 06:32:25 33° WSW 06:37:24 10° SSW
ATLAS 5 CENTAUR R/B 3.2 06:28:15 10° WNW 06:33:26 30° WSW 06:38:57 10° S
Cosmos 1763 Rocket 3.6 06:32:47 10° SW 06:37:47 57° WNW 06:42:53 10° NNE
Okean-O 2.7 06:34:01 10° N 06:38:26 63° WNW 06:42:47 10° SSW
Cosmos 2237 Rocket 2.6 06:33:44 10° SW 06:39:13 48° WNW 06:44:46 10° NNE
Cosmos 1515 3.8 06:39:39 10° SSW 06:43:27 56° WNW 06:47:15 10° N
Cosmos 1441 Rocket 3.4 06:40:20 10° SSW 06:44:15 58° WNW 06:48:14 10° N
Cosmos 1626 Rocket 4.2 06:40:45 10° S 06:45:10 65° E 06:49:36 10° NNE
